Overview Statistics Trail Chart Weather Telemetry Raw packets
 

This is the latest recevied weather packets stored in our database for station/object KN6CRX-10. If no packets are shown the sender has not sent any weather packets the latest 10 day(s).

<< 6 7 8 9 10 11 12 >>
Time Temp. Humidity Pressure Rain* Wind** Luminosity Snow
1788381512 26.11° C 23% 1014.6 hPa 0 mm - 806 W/m² -
1788381206 26.11° C 22% 1014.7 hPa 0 mm - 832 W/m² -
1788380906 26.11° C 22% 1014.8 hPa 0 mm - 746 W/m² -
1788380602 26.11° C 24% 1014.6 hPa 0 mm - 837 W/m² -
1788380299 25.56° C 25% 1014.8 hPa 0 mm - 865 W/m² -
1788379998 25.56° C 25% 1014.7 hPa 0 mm - 553 W/m² -
1788379694 26.11° C 25% 1014.9 hPa 0 mm - 730 W/m² -
1788379389 25.56° C 25% 1015.2 hPa 0 mm - 739 W/m² -
1788379084 26.11° C 25% 1014.9 hPa 0 mm - 763 W/m² -
1788378783 25.56° C 25% 1014.8 hPa 0 mm - 860 W/m² -
1788378478 26.11° C 26% 1014.9 hPa 0 mm - 703 W/m² -
1788378173 25.56° C 25% 1015.2 hPa 0 mm - 438 W/m² -
1788377868 25° C 26% 1014.9 hPa 0 mm - 315 W/m² -
1788377564 25° C 26% 1015.2 hPa 0 mm - 219 W/m² -
1788377262 25° C 26% 1015.2 hPa 0 mm - 241 W/m² -
1788376962 25° C 27% 1015.1 hPa 0 mm - 589 W/m² -
1788376656 25.56° C 28% 1015.1 hPa 0 mm - 219 W/m² -
1788376356 25° C 28% 1015.4 hPa 0 mm - 204 W/m² -
1788376052 25.56° C 27% 1015.3 hPa 0 mm - 173 W/m² -
1788375757 25° C 28% 1015.2 hPa 0 mm - 857 W/m² -
1788375447 25° C 27% 1015.3 hPa 0 mm - 660 W/m² -
1788375143 25° C 28% 1015.3 hPa 0 mm - 905 W/m² -
1788374838 23.89° C 29% 1015.5 hPa 0 mm - 292 W/m² -
1788374534 23.89° C 29% 1015.6 hPa 0 mm - 206 W/m² -
1788374230 23.89° C 27% 1015.6 hPa 0 mm - 180 W/m² -

* Rain latest hour (hover to see other rain measurements)
** Current wind speed in m/s (hover to see current wind gust speed)